When you browse on this site, cookies collect data to enhance your experience and personalize the content and advertising you see.
Visit our Privacy Policy to learn more. By continuing to use the site, you agree to this use of cookies and data.
  • In Schweiz
  • Länderverzeichnis
  • Für 7 Tage
  • Wassertemperatur
  • Wetterkarte
  • Widgets
  • user-avatar
    Anmelden

    Stündliche Wetter Basel

    Heute, 2 Juni, Dienstag

    Zeit Temperatur Niederschläge Wind Luftdruck Luftfeuchtigkeit
    00:00 +14°C° 0 mm 1 m/S 740 mmHg 82%
    01:00 +14°C° 0 mm 1 m/S 740 mmHg 85%
    02:00 +14°C° 0 mm 1 m/S 740 mmHg 86%
    03:00 +12°C° 0 mm 0 m/S 740 mmHg 87%
    04:00 +12°C° 0 mm 0 m/S 740 mmHg 88%
    05:00 +13°C° 0 mm 0 m/S 740 mmHg 85%
    06:00 +14°C° 0 mm 0 m/S 740 mmHg 83%
    07:00 +16°C° 0 mm 0 m/S 740 mmHg 78%
    08:00 +20°C° 0 mm 1 m/S 740 mmHg 71%
    09:00 +22°C° 0 mm 1 m/S 740 mmHg 64%
    10:00 +23°C° 0 mm 2 m/S 740 mmHg 57%
    11:00 +24°C° 0 mm 2 m/S 739 mmHg 53%
    12:00 +25°C° 0 mm 2 m/S 739 mmHg 50%
    13:00 +27°C° 0 mm 2 m/S 739 mmHg 47%
    14:00 +26°C° 0.1 mm 2 m/S 738 mmHg 49%
    15:00 +26°C° 0.1 mm 3 m/S 738 mmHg 52%
    16:00 +26°C° 0.1 mm 3 m/S 737 mmHg 55%
    17:00 +25°C° 0.2 mm 2 m/S 737 mmHg 61%
    18:00 +24°C° 0.2 mm 2 m/S 737 mmHg 68%
    19:00 +23°C° 0.2 mm 1 m/S 737 mmHg 75%
    20:00 +21°C° 0 mm 1 m/S 737 mmHg 78%
    21:00 +19°C° 0 mm 1 m/S 736 mmHg 82%
    22:00 +16°C° 0 mm 1 m/S 736 mmHg 86%
    23:00 +16°C° 0 mm 1 m/S 736 mmHg 86%

    Morgen, 3 Juni, Mittwoch

    Zeit Temperatur Niederschläge Wind Luftdruck Luftfeuchtigkeit
    00:00 +15°C° 0 mm 1 m/S 736 mmHg 87%
    01:00 +14°C° 0 mm 0 m/S 736 mmHg 88%
    02:00 +15°C° 0 mm 1 m/S 735 mmHg 88%
    03:00 +14°C° 0 mm 1 m/S 734 mmHg 88%
    04:00 +14°C° 0 mm 1 m/S 734 mmHg 89%
    05:00 +15°C° 0 mm 1 m/S 734 mmHg 87%
    06:00 +16°C° 0 mm 1 m/S 733 mmHg 84%
    07:00 +18°C° 0 mm 1 m/S 733 mmHg 82%
    08:00 +20°C° 0 mm 1 m/S 733 mmHg 74%
    09:00 +23°C° 0 mm 1 m/S 733 mmHg 66%
    10:00 +25°C° 0 mm 1 m/S 732 mmHg 58%
    11:00 +25°C° 0.2 mm 1 m/S 732 mmHg 55%
    12:00 +26°C° 0.2 mm 2 m/S 731 mmHg 53%
    13:00 +27°C° 0.2 mm 2 m/S 731 mmHg 50%
    14:00 +27°C° 0.1 mm 2 m/S 730 mmHg 50%
    15:00 +27°C° 0.1 mm 2 m/S 730 mmHg 50%
    16:00 +27°C° 0.1 mm 2 m/S 729 mmHg 49%
    17:00 +26°C° 0.3 mm 2 m/S 729 mmHg 58%
    18:00 +24°C° 0.3 mm 1 m/S 729 mmHg 66%
    19:00 +23°C° 0.3 mm 1 m/S 728 mmHg 74%
    20:00 +21°C° 1.2 mm 1 m/S 728 mmHg 80%
    21:00 +20°C° 1.2 mm 1 m/S 729 mmHg 87%
    22:00 +18°C° 1.2 mm 1 m/S 729 mmHg 94%
    23:00 +18°C° 2.7 mm 1 m/S 728 mmHg 95%

    übermorgen, 4 Juni, Donnerstag

    Zeit Temperatur Niederschläge Wind Luftdruck Luftfeuchtigkeit
    00:00 +16°C° 2.7 mm 1 m/S 728 mmHg 95%
    01:00 +16°C° 2.7 mm 1 m/S 728 mmHg 96%
    02:00 +16°C° 0.4 mm 1 m/S 727 mmHg 96%
    03:00 +16°C° 0.4 mm 1 m/S 727 mmHg 95%
    04:00 +15°C° 0.4 mm 1 m/S 726 mmHg 94%
    05:00 +16°C° 0.2 mm 1 m/S 726 mmHg 93%
    06:00 +16°C° 0.2 mm 1 m/S 726 mmHg 92%
    07:00 +18°C° 0.2 mm 1 m/S 726 mmHg 91%
    08:00 +18°C° 0.4 mm 2 m/S 726 mmHg 88%
    09:00 +18°C° 0.4 mm 2 m/S 725 mmHg 86%
    10:00 +19°C° 0.4 mm 3 m/S 725 mmHg 84%
    11:00 +19°C° 0.6 mm 3 m/S 725 mmHg 84%
    12:00 +19°C° 0.6 mm 3 m/S 725 mmHg 84%
    13:00 +19°C° 0.6 mm 3 m/S 725 mmHg 83%
    14:00 +18°C° 1.6 mm 2 m/S 725 mmHg 86%
    15:00 +17°C° 1.6 mm 2 m/S 725 mmHg 89%
    16:00 +16°C° 1.6 mm 2 m/S 725 mmHg 92%
    17:00 +16°C° 0.9 mm 2 m/S 725 mmHg 92%
    18:00 +16°C° 0.9 mm 2 m/S 725 mmHg 92%
    19:00 +15°C° 0.9 mm 2 m/S 725 mmHg 92%
    20:00 +15°C° 0.5 mm 2 m/S 726 mmHg 92%
    21:00 +14°C° 0.5 mm 2 m/S 726 mmHg 93%
    22:00 +14°C° 0.5 mm 2 m/S 726 mmHg 93%
    23:00 +14°C° 0.2 mm 2 m/S 727 mmHg 94%

    5 Juni, Freitag

    Zeit Temperatur Niederschläge Wind Luftdruck Luftfeuchtigkeit
    00:00 +13°C° 0.2 mm 2 m/S 727 mmHg 94%
    01:00 +13°C° 0.2 mm 2 m/S 727 mmHg 95%
    02:00 +12°C° 0.2 mm 2 m/S 727 mmHg 95%
    03:00 +12°C° 0.2 mm 2 m/S 728 mmHg 96%
    04:00 +12°C° 0.2 mm 2 m/S 728 mmHg 96%
    05:00 +12°C° 0.2 mm 2 m/S 728 mmHg 94%
    06:00 +11°C° 0.2 mm 3 m/S 729 mmHg 92%
    07:00 +11°C° 0.2 mm 3 m/S 729 mmHg 90%
    08:00 +12°C° 0.1 mm 3 m/S 729 mmHg 80%
    09:00 +14°C° 0.1 mm 4 m/S 730 mmHg 70%
    10:00 +15°C° 0.1 mm 4 m/S 730 mmHg 60%
    11:00 +15°C° 0.1 mm 4 m/S 730 mmHg 60%
    12:00 +16°C° 0.1 mm 5 m/S 730 mmHg 60%
    13:00 +16°C° 0.1 mm 5 m/S 730 mmHg 60%
    14:00 +16°C° 0.1 mm 5 m/S 730 mmHg 61%
    15:00 +16°C° 0.1 mm 5 m/S 730 mmHg 62%
    16:00 +16°C° 0.1 mm 6 m/S 730 mmHg 63%
    17:00 +16°C° 0 mm 5 m/S 731 mmHg 66%
    18:00 +15°C° 0 mm 4 m/S 731 mmHg 69%
    19:00 +15°C° 0 mm 4 m/S 731 mmHg 72%
    20:00 +14°C° 0 mm 3 m/S 731 mmHg 74%
    21:00 +13°C° 0 mm 3 m/S 732 mmHg 75%
    22:00 +12°C° 0 mm 3 m/S 732 mmHg 77%
    23:00 +12°C° 0 mm 3 m/S 732 mmHg 75%

    6 Juni, Samstag

    Zeit Temperatur Niederschläge Wind Luftdruck Luftfeuchtigkeit
    00:00 +12°C° 0 mm 3 m/S 732 mmHg 74%
    01:00 +12°C° 0 mm 3 m/S 732 mmHg 72%
    02:00 +12°C° 0 mm 3 m/S 732 mmHg 74%
    03:00 +12°C° 0 mm 3 m/S 732 mmHg 77%
    04:00 +12°C° 0 mm 3 m/S 732 mmHg 79%
    05:00 +13°C° 0 mm 3 m/S 732 mmHg 77%
    06:00 +14°C° 0 mm 4 m/S 732 mmHg 75%
    07:00 +15°C° 0 mm 4 m/S 732 mmHg 73%
    08:00 +15°C° 0 mm 4 m/S 732 mmHg 71%
    09:00 +17°C° 0 mm 4 m/S 732 mmHg 70%
    10:00 +18°C° 0 mm 4 m/S 732 mmHg 69%
    11:00 +19°C° 0 mm 5 m/S 732 mmHg 65%
    12:00 +20°C° 0 mm 5 m/S 732 mmHg 62%
    13:00 +21°C° 0 mm 6 m/S 732 mmHg 58%
    14:00 +21°C° 0.1 mm 6 m/S 732 mmHg 60%
    15:00 +21°C° 0.1 mm 6 m/S 732 mmHg 62%
    16:00 +21°C° 0.1 mm 5 m/S 732 mmHg 64%
    17:00 +20°C° 0.1 mm 4 m/S 732 mmHg 69%
    18:00 +19°C° 0.1 mm 3 m/S 732 mmHg 74%
    19:00 +18°C° 0.1 mm 2 m/S 732 mmHg 79%
    20:00 +17°C° 0.1 mm 2 m/S 732 mmHg 82%
    21:00 +16°C° 0.1 mm 1 m/S 732 mmHg 85%
    22:00 +15°C° 0.1 mm 1 m/S 733 mmHg 87%
    23:00 +15°C° 0.5 mm 1 m/S 732 mmHg 89%

    7 Juni, Sonntag

    Zeit Temperatur Niederschläge Wind Luftdruck Luftfeuchtigkeit
    00:00 +15°C° 0.5 mm 1 m/S 732 mmHg 90%
    01:00 +15°C° 0.5 mm 1 m/S 732 mmHg 91%
    02:00 +14°C° 0.4 mm 1 m/S 732 mmHg 92%
    03:00 +14°C° 0.4 mm 1 m/S 732 mmHg 93%
    04:00 +14°C° 0.4 mm 1 m/S 732 mmHg 94%
    05:00 +15°C° 0.2 mm 1 m/S 732 mmHg 94%
    06:00 +15°C° 0.2 mm 1 m/S 732 mmHg 94%
    07:00 +15°C° 0.2 mm 1 m/S 732 mmHg 93%
    08:00 +15°C° 0.8 mm 2 m/S 732 mmHg 93%
    09:00 +14°C° 0.8 mm 3 m/S 732 mmHg 93%
    10:00 +14°C° 0.8 mm 4 m/S 733 mmHg 94%
    11:00 +14°C° 0.6 mm 3 m/S 733 mmHg 91%
    12:00 +14°C° 0.6 mm 3 m/S 734 mmHg 88%
    13:00 +14°C° 0.6 mm 3 m/S 734 mmHg 86%
    14:00 +14°C° 0 mm 3 m/S 734 mmHg 78%
    15:00 +16°C° 0 mm 2 m/S 735 mmHg 71%
    16:00 +17°C° 0 mm 2 m/S 735 mmHg 64%
    17:00 +17°C° 0.1 mm 2 m/S 735 mmHg 68%
    18:00 +18°C° 0.1 mm 1 m/S 735 mmHg 73%
    19:00 +18°C° 0.1 mm 1 m/S 735 mmHg 77%
    20:00 +15°C° 0 mm 1 m/S 735 mmHg 81%
    21:00 +13°C° 0 mm 1 m/S 735 mmHg 86%
    22:00 +12°C° 0 mm 1 m/S 736 mmHg 90%
    23:00 +11°C° 0 mm 1 m/S 736 mmHg 91%
    Mehr zeigen